Location: Ames
(42.0350°N, 93.6200°W)
Time: 17:14:46
(UTC-05:00)

ISS - All Passes

Search period start: 27 April 2015 00:00
Search period end: 07 May 2015 00:00
Orbit: 395 x 402 km, 51.6° (Epoch: 27 April)

Date Brightness Start Highest point End Pass type
(mag) Time Alt. Az. Time Alt. Az. Time Alt. Az.
27 Apr - 12:10:05 10° SW 12:13:19 81° SE 12:16:35 10° ENE daylight
27 Apr - 13:47:22 10° WNW 13:49:59 22° NNW 13:52:37 10° NE daylight
27 Apr - 15:25:11 10° NW 15:27:12 15° N 15:29:14 10° NE daylight
27 Apr - 17:01:27 10° NW 17:04:20 28° NNE 17:07:14 10° E daylight
27 Apr - 18:37:40 10° WNW 18:40:48 45° SW 18:43:55 10° SSE daylight
28 Apr - 11:16:09 10° SSW 11:19:12 39° SE 11:22:17 10° ENE daylight
28 Apr - 12:52:41 10° W 12:55:38 30° NNW 12:58:34 10° NE daylight
28 Apr - 14:30:41 10° NW 14:32:44 15° N 14:34:46 10° NE daylight
28 Apr - 16:07:23 10° NW 16:09:57 21° NNE 16:12:32 10° ENE daylight
28 Apr - 17:43:23 10° NW 17:46:40 89° NNE 17:49:55 10° SE daylight
28 Apr - 19:21:48 10° WSW 19:22:35 11° SW 19:23:15 10° SW daylight
29 Apr - 10:22:42 10° S 10:25:08 20° SE 10:27:39 10° E daylight
29 Apr - 11:58:07 10° WSW 12:01:17 49° NNW 12:04:28 10° NE daylight
29 Apr - 13:35:57 10° NW 13:38:13 17° N 13:40:28 10° NNE daylight
29 Apr - 15:13:14 10° NNW 15:15:28 17° N 15:17:44 10° NE daylight
29 Apr - 16:49:14 10° NW 16:52:25 48° NNE 16:55:35 10° ESE daylight
29 Apr - 18:26:01 10° W 18:28:34 21° SW 18:31:04 10° S daylight
30 Apr - 09:30:42 10° SE 09:31:06 10° SE 09:31:38 10° ESE daylight
30 Apr - 11:03:45 10° SW 11:07:00 89° SSE 11:10:16 10° NE daylight
30 Apr - 12:41:08 10° WNW 12:43:42 21° NNW 12:46:17 10° NE daylight
30 Apr - 14:18:53 10° NW 14:20:55 15° N 14:22:57 10° NE daylight
30 Apr - 15:55:05 10° NW 15:58:02 30° NNE 16:00:58 10° E daylight
30 Apr - 17:31:21 10° WNW 17:34:26 41° SW 17:37:30 10° SSE daylight
01 May - 10:09:40 10° SSW 10:12:46 44° SE 10:15:53 10° ENE daylight
01 May - 11:46:19 10° W 11:49:12 29° NNW 11:52:07 10° NE daylight
01 May - 13:24:18 10° NW 13:26:19 15° N 13:28:20 10° NE daylight
01 May - 15:00:55 10° NW 15:03:32 22° NNE 15:06:08 10° ENE daylight
01 May - 16:36:56 10° WNW 16:40:13 84° SSW 16:43:27 10° SE daylight
02 May - 09:16:01 10° S 09:18:34 22° SE 09:21:11 10° E daylight
02 May - 10:51:36 10° WSW 10:54:44 45° NNW 10:57:54 10° NE daylight
02 May - 12:29:28 10° NW 12:31:41 17° N 12:33:54 10° NNE daylight
02 May - 14:06:39 10° NNW 14:08:56 17° N 14:11:13 10° NE daylight
02 May - 15:42:38 10° NW 15:45:50 52° NNE 15:49:01 10° ESE daylight
02 May - 17:19:32 10° W 17:21:57 19° SW 17:24:18 10° S daylight
03 May - 08:23:24 10° SSE 08:24:23 11° SE 08:25:31 10° ESE daylight
03 May - 09:57:05 10° WSW 10:00:19 84° NW 10:03:35 10° NE daylight
03 May - 11:34:31 10° WNW 11:37:03 20° NNW 11:39:34 10° NE daylight
03 May - 13:12:14 10° NW 13:14:16 15° N 13:16:19 10° NE daylight
03 May - 14:48:22 10° NW 14:51:20 31° NNE 14:54:19 10° E daylight
03 May - 16:24:40 10° WNW 16:27:43 37° SW 16:30:44 10° SSE daylight
04 May - 09:02:50 10° SW 09:05:57 48° SE 09:09:06 10° ENE daylight
04 May - 10:39:34 10° W 10:42:26 27° NNW 10:45:17 10° NE daylight
04 May - 12:17:32 10° NW 12:19:32 15° N 12:21:32 10° NE daylight
04 May - 13:54:06 10° NW 13:56:44 22° NNE 13:59:23 10° ENE daylight
04 May - 15:30:07 10° WNW 15:33:22 77° SW 15:36:36 10° SE daylight
05 May - 08:08:59 10° S 08:11:38 24° SE 08:14:19 10° E daylight
05 May - 09:44:43 10° WSW 09:47:50 42° NNW 09:50:57 10° NE daylight
05 May - 11:22:37 10° NW 11:24:47 16° N 11:26:57 10° NNE daylight
05 May - 12:59:43 10° NNW 13:02:01 18° NNE 13:04:20 10° ENE daylight
05 May - 14:35:41 10° NW 14:38:53 55° NNE 14:42:05 10° ESE daylight
05 May - 16:12:41 10° W 16:14:57 18° SW 16:17:11 10° S daylight
06 May - 07:16:00 10° SSE 07:17:19 12° SE 07:18:45 10° ESE daylight
06 May - 08:50:02 10° WSW 08:53:16 78° NW 08:56:32 10° NE daylight
06 May - 10:27:32 10° WNW 10:30:02 20° NNW 10:32:29 10° NE daylight
06 May - 12:05:11 10° NW 12:07:14 15° N 12:09:17 10° NE daylight
06 May - 13:41:17 10° NW 13:44:17 33° NNE 13:47:17 10° E daylight
06 May - 15:17:37 10° WNW 15:20:37 34° SW 15:23:35 10° SSE daylight
